Location: Ellerstadt
(49.4644°N, 8.2615°E)
Time: 05:56:07
(UTC+00:00)

IRIDIUM 100 - Pass Details

Date: 27 September 2021
Orbit: 776 x 779 km, 86.4° (Epoch: 18 October)

Event Time Altitude Azimuth Distance (km) Brightness Sun altitude
Exits shadow 01:21:57 24° 354° (N) 1,593 ? -35.4°
Drops below altitude 10° 01:23:57 10° 359° (N) 2,342 ? -35.2°
Sets 01:26:20 0° 3° (N) 3,274 ? -34.9°
